#timestamp,LO_Frequency,Hit,StdDev 
1550404815.6,286046999.9,N
1550404835.4,286047001.5,N
1550404855.3,286047001.3,N
1550404875.1,286047002.7,N
1550404895.9,286047002.5,N
1550404915.7,286047001.7,N
1550404935.5,286047004.4,N
1550404955.4,286047003.2,N
1550404975.2,286047001.8,N
1550404995.0,286047004.1,N
1550404995.9,286047004.1,N
1550405015.8,286047000.4,N
1550405035.6,286046998.3,N
1550405055.5,286046998.5,N
1550405075.3,286046999.8,N
1550405095.1,286047000.3,N
1550405115.9,286047002.4,N
1550405135.7,286047002.8,N
1550405155.5,286047002.8,N
1550405175.4,286047002.3,N
1550405195.2,286046999.9,N
1550405215.1,286046999.9,N
1550405216.0,286046999.9,N
1550405235.8,286047002.4,N
1550405255.6,286047001.6,N
1550405275.5,286047001.4,N
1550405295.3,286047001.4,N
1550405315.1,286047000.4,N
1550405335.9,286047001.1,N
1550405355.7,286047000.7,N
1550405375.6,286046998.5,N
1550405395.4,286046999.4,N
1550405415.2,286046999.4,N
1550405435.1,286046999.6,N
1550405436.0,286046999.6,N
1550405455.8,286046998.8,N
1550405475.7,286046997.2,N
1550405495.5,286046997.9,N
1550405515.3,286046997.4,N
1550405535.2,286046995.3,N
1550405555.0,286046995.3,N
1550405555.9,286046995.3,N
1550405575.7,286046998.0,N
1550405595.6,286046996.5,N
1550405615.4,286046997.0,N
1550405635.3,286046996.7,N
1550405655.1,286046997.8,N
1550405656.0,286046997.8,N
1550405675.8,286046997.5,N
1550405695.7,286046995.7,N
1550405715.5,286046996.3,N
1550405735.3,286046996.4,N
1550405755.2,286046994.3,N
1550405775.0,286046994.5,N
1550405775.9,286046994.5,N
1550405795.8,286046996.4,N
1550405815.6,286046993.6,Y
1550405835.4,286046995.1,P
1550405855.3,286046997.2,N
1550405875.1,286046996.8,N
1550405895.9,286046996.7,Y
1550405915.7,286046998.1,P
1550405935.5,286047000.3,N
1550405955.4,286046999.9,N
1550405975.2,286047000.3,N
1550405995.0,286046999.7,N
1550405996.0,286046999.7,N
1550406015.8,286047000.3,N
1550406035.6,286046998.1,N
1550406055.5,286046997.0,N
1550406075.3,286046997.1,N
1550406095.1,286046997.5,N
1550406115.9,286046997.9,N
1550406135.7,286046997.6,N
1550406155.6,286046994.9,Y
1550406175.4,286046997.1,P
1550406195.2,286046997.4,P
1550406215.1,286046997.0,P
1550406216.0,286046997.0,Y
1550406235.8,286047000.0,P
1550406255.6,286047000.4,N
1550406275.5,286047000.7,N
1550406295.3,286046996.5,N
1550406315.2,286046997.8,N
1550406335.9,286046997.2,N
1550406355.7,286046996.8,N
1550406375.6,286046995.4,N
1550406395.4,286046997.5,N
1550406415.2,286046996.9,N
1550406435.1,286046998.0,N
1550406436.0,286046998.0,N
1550406455.8,286046997.9,N
1550406475.7,286046997.8,N
1550406495.5,286046997.8,N
1550406515.3,286046995.2,Y
1550406535.2,286046999.0,P
1550406555.0,286046997.3,P
1550406555.9,286046997.3,P
1550406575.8,286046997.2,Y
1550406595.6,286046998.5,P
1550406615.5,286047000.9,N
1550406635.3,286047000.9,N
1550406655.1,286047002.6,N
1550406675.9,286047001.6,N
1550406695.7,286047000.0,N
1550406715.5,286047000.9,N
1550406735.4,286047000.4,N
1550406755.2,286047000.9,N
1550406775.1,286046998.7,N
1550406776.0,286046998.7,N
1550406795.8,286046999.5,N
1550406815.6,286047001.2,N
1550406835.5,286047000.7,N
1550406855.3,286046999.9,N
1550406875.2,286047000.5,N
1550406895.9,286047002.4,N
1550406915.7,286047000.4,N
1550406935.6,286047000.5,N
1550406955.4,286046998.6,N
1550406975.2,286046999.3,N
1550406995.1,286046998.9,N
1550406996.0,286046998.9,N
1550407015.8,286046996.6,N
1550407035.7,286046996.9,N
1550407055.5,286046995.0,Y
1550407075.3,286046997.7,P
1550407095.2,286046997.3,N
1550407115.0,286046997.1,N
1550407115.9,286046997.1,N
1550407135.8,286046997.8,N
1550407155.6,286046995.2,Y
1550407175.4,286046998.6,P
1550407195.3,286046997.1,P
1550407215.1,286046997.6,P
1550407235.9,286046995.9,Y
1550407255.7,286046997.1,P
1550407275.5,286046998.8,P
1550407295.4,286046998.1,N
1550407315.2,286047001.0,N
1550407335.0,286047000.7,N
1550407335.9,286047000.7,N
1550407355.8,286046999.9,N
1550407375.6,286047001.0,N
1550407395.5,286046998.5,N
1550407415.3,286046999.3,N
1550407435.1,286046996.8,N
1550407455.9,286046997.7,N
1550407475.7,286046998.9,N
1550407495.5,286046999.3,N
1550407515.4,286047000.4,N
1550407535.2,286047001.1,N
1550407555.1,286047000.7,N
1550407556.0,286047000.7,N
1550407575.8,286047002.7,N
1550407595.6,286047000.1,N
1550407615.5,286047000.0,N
1550407635.3,286046999.3,N
1550407655.1,286046998.8,N
1550407675.9,286046999.2,N
1550407695.7,286047000.8,N
1550407715.6,286046999.3,N
1550407735.4,286046998.1,N
1550407755.2,286046999.9,N
1550407775.1,286047001.1,N
1550407776.0,286047001.1,N
1550407795.8,286046998.5,N
1550407815.6,286046998.5,N
1550407835.5,286046998.4,N
1550407855.3,286046998.9,N
1550407875.2,286046998.2,N
1550407895.9,286047002.8,N
1550407915.7,286047004.3,Y
1550407935.6,286047003.5,P
1550407955.4,286047001.7,N
1550407975.3,286047001.3,N
1550407995.1,286047004.3,Y
1550408015.8,286047000.7,P
1550408035.7,286047002.1,P
1550408055.5,286047000.1,N
1550408075.4,286047002.1,N
1550408095.2,286046999.7,N
1550408115.0,286047002.3,N
1550408115.9,286047002.3,N
1550408135.8,286047002.4,N
1550408155.6,286047002.8,N
1550408175.4,286047002.0,N
1550408195.6,286047001.3,N
1550408215.4,286047002.7,N
1550408235.3,286047001.5,N
1550408255.1,286047004.1,Y
1550408256.0,286047004.1,P
1550408275.8,286047001.9,N
1550408295.7,286047002.0,N
1550408315.5,286047002.8,N
1550408335.3,286047000.5,N
1550408355.2,286047002.8,N
1550408375.0,286047002.1,N
1550408375.9,286047002.1,N
1550408395.8,286047002.6,N
